Flag Weather past 2 weeks in Espoo, Finland

Now
37 °F

Drizzle. Fog.


Feels Like: 31 °F
Forecast: 35 / 39 °F
Wind: 9 mph from South

Location: Helsinki-Vantaa

Current Time: Nov 26, 2014 at 2:42:33 AM

Latest Report: Nov 26, 2014 at 1:50 AM


Visibility: 2 mi

Pressure: 30.27 "Hg

Humidity: 100%

Dew point: 37 °F

Location of EspooLocation

Historic Weather in Espoo — Graph

°F

Espoo temperature yesterday

Maximum temperature yesterday: 37 °F (at 1:50 PM)
Minimum temperature yesterday: 34 °F (at 12:20 AM)
Average temperature yesterday: 36 °F

Past Weeks' High & Low Weather Summary

 TemperatureHumidityPressure
High48 °F (Nov 11, 10:20 AM)100% (Nov 11, 1:50 AM)30.60 "Hg (Nov 11, 1:50 AM)
Low23 °F (Nov 22, 10:20 PM)70% (Nov 17, 10:20 AM)29.83 "Hg (Nov 11, 9:20 AM)
Average34 °F90%30.36 "Hg
* Reported Nov 11 1:20 AM — Nov 26 1:20 AM, Espoo, Weather by CustomWeather, © 2014

Note: Actual official high and low records may vary slightly from our data, if they occured in-between our weather recording intervals... More about our weather records

Advertising

Espoo weather history for previous 24 hours

 ConditionsComfort  
Time TempWeatherWind HumidityBarometerVisibility
1:20 AM
Nov 26
37 °FDrizzle. Fog.8 mph100%30.27 "Hg1 mi
12:50 AM37 °FDrizzle. Fog.10 mph100%30.27 "Hg2 mi
12:20 AM37 °FDrizzle. Fog.9 mph100%30.27 "Hg2 mi
11:50 PM
Nov 25
37 °FDrizzle. Fog.8 mph100%30.27 "Hg2 mi
11:20 PM37 °FDrizzle. Fog.9 mph100%30.27 "Hg2 mi
10:50 PM37 °FDrizzle. Fog.10 mph100%30.27 "Hg2 mi
10:20 PM37 °FFog.8 mph100%30.27 "Hg2 mi
9:50 PM37 °FDrizzle. Fog.9 mph100%30.27 "Hg2 mi
9:20 PM37 °FDrizzle. Fog.13 mph93%30.24 "Hg2 mi
8:50 PM37 °FLight rain. Passing clouds.10 mph93%30.24 "Hg4 mi
8:20 PM37 °FLight rain. Passing clouds.12 mph93%30.27 "Hg4 mi
7:50 PM37 °FLight rain. Fog.13 mph93%30.27 "Hg3 mi
7:20 PM37 °FLight rain. Fog.12 mph93%30.24 "Hg3 mi
6:50 PM37 °FLight rain. Fog.10 mph93%30.24 "Hg3 mi
6:20 PM37 °FLight rain. Fog.12 mph93%30.24 "Hg3 mi
5:50 PM37 °FLight rain. Fog.12 mph93%30.24 "Hg3 mi
5:20 PM37 °FLight rain. Fog.13 mph93%30.24 "Hg3 mi
4:50 PM37 °FFog.12 mph93%30.24 "Hg3 mi
4:20 PM37 °FFog.10 mph93%30.24 "Hg3 mi
3:50 PM37 °FFog.12 mph93%30.24 "Hg3 mi
3:20 PM37 °FLight rain. Fog.13 mph93%30.24 "Hg2 mi
2:50 PM37 °FFog.14 mph93%30.24 "Hg2 mi
2:20 PM37 °FFog.14 mph93%30.24 "Hg2 mi
1:50 PM37 °FFog.13 mph93%30.24 "Hg2 mi
1:20 PM36 °FFog.15 mph100%30.21 "Hg2 mi
12:50 PM36 °FFog.15 mph100%30.21 "Hg2 mi
12:20 PM36 °FFog.15 mph100%30.21 "Hg2 mi
11:50 AM36 °FFog.13 mph100%30.21 "Hg3 mi
11:20 AM36 °FDrizzle. Partly sunny.14 mph93%30.21 "Hg3 mi
10:50 AM36 °FDrizzle. Low clouds.13 mph100%30.21 "Hg3 mi
10:20 AM36 °FDrizzle. Partly sunny.12 mph93%30.21 "Hg3 mi
9:50 AM36 °FDrizzle. Low clouds.14 mph93%30.21 "Hg4 mi
9:20 AM36 °FDrizzle. Fog.14 mph93%30.18 "Hg3 mi
8:50 AM36 °FDrizzle. Fog.14 mph93%30.18 "Hg2 mi
8:20 AM36 °FDrizzle. Fog.15 mph93%30.18 "Hg2 mi
7:50 AM36 °FDrizzle. Fog.14 mph93%30.18 "Hg2 mi
7:20 AM36 °FDrizzle. Fog.13 mph93%30.18 "Hg2 mi
6:50 AM34 °FDrizzle. Fog.14 mph100%30.18 "Hg2 mi
6:20 AM34 °FDrizzle. Fog.12 mph100%30.18 "Hg2 mi
5:50 AM36 °FDrizzle. Fog.13 mph87%30.18 "Hg2 mi
5:20 AM36 °FPassing clouds.13 mph87%30.15 "Hg4 mi
4:50 AM36 °FPassing clouds.13 mph87%30.15 "Hg5 mi
4:20 AM36 °FPassing clouds.15 mph87%30.15 "Hg6 mi
3:50 AM36 °FPassing clouds.15 mph87%30.15 "Hg6 mi
3:20 AM34 °FPassing clouds.14 mph93%30.15 "HgN/A
2:50 AM34 °FPassing clouds.15 mph87%30.15 "HgN/A
2:20 AM34 °FPassing clouds.12 mph87%30.15 "HgN/A
Weather by CustomWeather, © 2014

See weather overviewHow to use our weather pages